Location: Krakow
(50.0830°N, 19.9170°E)
Time: 13:40:51
(UTC+01:00)

N. Korean satellite - Visible Passes

Search period start: 08 December 2022 00:00
Search period end: 18 December 2022 00:00
Orbit: 420 x 452 km, 97.3° (Epoch: 08 December)

Date Brightness Start Highest point End Pass type
(mag) Time Alt. Az. Time Alt. Az. Time Alt. Az.
08 Dec 6.9 04:57:29 10° NNE 05:00:51 60° E 05:04:10 10° S visible
08 Dec 8.3 06:31:25 10° NW 06:32:53 12° WNW 06:34:22 10° W visible
08 Dec 9.6 17:04:31 10° SW 17:06:48 17° W 17:09:07 10° NW visible
09 Dec 9.0 04:18:58 10° NE 04:21:36 21° E 04:24:12 10° SE visible
09 Dec 7.2 05:51:09 10° N 05:54:09 30° WNW 05:57:06 10° SW visible
09 Dec 7.7 16:24:12 10° S 16:27:29 46° W 16:30:49 10° NNW visible
10 Dec 6.2 05:11:45 10° NNE 05:15:09 89° W 05:18:30 10° SSW visible
10 Dec 9.9 17:19:49 10° WSW 17:21:10 12° W 17:22:32 10° WNW visible
11 Dec 8.3 04:32:52 10° NNE 04:35:53 29° E 04:38:50 10° SSE visible
11 Dec 7.6 06:05:36 10° NNW 06:08:14 21° WNW 06:10:50 10° WSW visible
11 Dec 8.5 16:38:37 10° SSW 16:41:41 31° W 16:44:47 10° NNW visible
12 Dec 9.9 03:55:23 10° ENE 03:56:20 11° E 03:57:16 10° ESE visible
12 Dec 6.3 05:25:52 10° N 05:29:12 59° WNW 05:32:29 10° SSW visible
13 Dec 7.5 04:46:41 10° NNE 04:49:56 42° E 04:53:06 10° S visible
13 Dec 8.0 06:20:01 10° NNW 06:22:05 16° WNW 06:24:09 10° W visible
13 Dec 9.2 16:52:59 10° SSW 16:55:42 22° W 16:58:27 10° NW visible
14 Dec 9.5 04:08:17 10° NE 04:11:15 14° ESE 04:12:24 10° SE visible
14 Dec 7.7 05:39:52 10° N 05:44:38 23° SW 05:46:09 10° SW visible
14 Dec 6.9 16:12:49 10° S 16:16:12 65° WSW 16:19:36 10° NNW visible
15 Dec 8.1 05:00:23 10° NNE 05:05:36 23° S 05:07:00 10° S visible
15 Dec 8.6 06:39:00 - WSW 06:39:00 - WSW 06:34:29 10° NW visible
15 Dec 9.6 17:07:22 10° SW 17:09:32 16° W 17:11:43 10° NW visible
16 Dec 9.4 04:26:20 12° SE 04:26:20 12° SE 04:26:45 10° SE visible
16 Dec 8.6 05:53:44 10° N 05:59:43 - SW 05:54:14 13° NNW visible
16 Dec 7.8 16:26:36 10° S 16:29:51 43° W 16:33:09 10° NNW visible
17 Dec 8.8 05:13:57 10° NNE 05:20:17 12° SSW 05:20:36 10° SSW visible
17 Dec 9.9 17:22:02 10° WSW 17:23:11 11° W 17:24:20 10° WNW visible
